Location: Fornova de Taro
(44.7000°N, 10.1000°E)
Time: 23:02:24
(UTC+00:00)

USA 229 DEB - Pass Details

Date: 26 May 2022
Orbit: 934 x 1278 km, 63.4° (Epoch: 24 May)

Event Time Altitude Azimuth Distance (km) Brightness Sun altitude
Rises 01:02:19 0° 317° (NW) 4,014 7.0 -19.9°
Reaches altitude 10° 01:05:08 10° 310° (NW) 3,097 6.3 -19.7°
Maximum altitude 01:11:57 39° 245° (WSW) 1,755 4.4 -19.1°
Enters shadow 01:15:06 28° 201° (SSW) 2,146 4.7 -18.9°
